Location: Gisborne
(38.6530°S, 178.0040°E)
Time: 09:47:26
(UTC+13:00)

Cosmos 1809 Rocket - Pass Details

Date: 24 January 2019
Orbit: 940 x 964 km, 82.5° (Epoch: 21 February)

Event Time Altitude Azimuth Distance (km) Brightness Sun altitude
Exits shadow 23:22:28 57° 74° (ENE) 1,107 4.5 -25.9°
Maximum altitude 23:22:48 58° 87° (E) 1,100 4.5 -25.9°
Drops below altitude 10° 23:28:48 10° 164° (SSE) 2,692 7.3 -26.5°
Sets 23:31:21 0° 168° (SSE) 3,646 8.2 -26.8°
